| time (UTC) | temp F | wind direction | speed MPH | gust MPH | rain 1hr in | rain 24hr in | rain mn in | humidity % | barometer mb |
| 20260901231427 | 74 | 293 | 3.0 | 7.0 | 0.00 | 0.00 | 0.00 | 44 | 1014.1 |
| 20260901230706 | 74 | 265 | 2.0 | 9.0 | 0.00 | 0.00 | 0.00 | 44 | 1014.0 |
| 20260901230203 | 74 | 245 | 1.0 | 9.0 | 0.00 | 0.00 | 0.00 | 42 | 1014.2 |
| 20260901225705 | 74 | 240 | 2.0 | 8.0 | 0.00 | 0.00 | 0.00 | 44 | 1014.2 |
| 20260901225210 | 73 | 250 | 2.0 | 9.0 | 0.00 | 0.00 | 0.00 | 45 | 1014.1 |
| 20260901224938 | 74 | 284 | 2.0 | 9.0 | 0.00 | 0.00 | 0.00 | 44 | 1014.1 |
| 20260901224203 | 73 | 239 | 3.0 | 10.0 | 0.00 | 0.00 | 0.00 | 45 | 1014.1 |
| 20260901223925 | 73 | 300 | 4.0 | 10.0 | 0.00 | 0.00 | 0.00 | 46 | 1014.2 |
| 20260901223204 | 74 | 231 | 3.0 | 9.0 | 0.00 | 0.00 | 0.00 | 45 | 1014.2 |
| 20260901222704 | 74 | 282 | 2.0 | 9.0 | 0.00 | 0.00 | 0.00 | 45 | 1014.3 |
| 20260901222204 | 74 | 278 | 1.0 | 6.0 | 0.00 | 0.00 | 0.00 | 45 | 1014.3 |
| 20260901221705 | 74 | 214 | 2.0 | 9.0 | 0.00 | 0.00 | 0.00 | 45 | 1014.2 |
| 20260901221203 | 74 | 267 | 2.0 | 11.0 | 0.00 | 0.00 | 0.00 | 47 | 1014.2 |
| 20260901220705 | 74 | 281 | 2.0 | 11.0 | 0.00 | 0.00 | 0.00 | 46 | 1014.2 |
| 20260901220203 | 74 | 254 | 2.0 | 9.0 | 0.00 | 0.00 | 0.00 | 47 | 1014.4 |
| 20260901215705 | 74 | 297 | 2.0 | 9.0 | 0.00 | 0.00 | 0.00 | 46 | 1014.5 |
| 20260901215649 | 75 | 276 | 2.0 | 11.0 | 0.00 | 0.00 | 0.00 | 46 | 1014.4 |
| 20260901214705 | 75 | 131 | 1.0 | 11.0 | 0.00 | 0.00 | 0.00 | 46 | 1014.4 |
| 20260901214203 | 75 | 127 | 1.0 | 6.0 | 0.00 | 0.00 | 0.00 | 46 | 1014.5 |
| 20260901213704 | 75 | 187 | 1.0 | 6.0 | 0.00 | 0.00 | 0.00 | 47 | 1014.5 |
| 20260901213202 | 75 | 186 | 1.0 | 7.0 | 0.00 | 0.00 | 0.00 | 44 | 1014.5 |
| 20260901212704 | 76 | 285 | 1.0 | 7.0 | 0.00 | 0.00 | 0.00 | 42 | 1014.5 |
| 20260901212203 | 76 | 236 | 1.0 | 9.0 | 0.00 | 0.00 | 0.00 | 44 | 1014.4 |
| 20260901211706 | 75 | 251 | 1.0 | 9.0 | 0.00 | 0.00 | 0.00 | 44 | 1014.4 |
| 20260901211204 | 74 | 300 | 1.0 | 5.0 | 0.00 | 0.00 | 0.00 | 44 | 1014.4 |
| 20260901210705 | 74 | 295 | 1.0 | 7.0 | 0.00 | 0.00 | 0.00 | 44 | 1014.4 |
| 20260901210203 | 74 | 257 | 1.0 | 7.0 | 0.00 | 0.00 | 0.00 | 45 | 1014.5 |
| 20260901205705 | 74 | 273 | 1.0 | 6.0 | 0.00 | 0.00 | 0.00 | 44 | 1014.5 |
| 20260901205430 | 74 | 250 | 1.0 | 7.0 | 0.00 | 0.00 | 0.00 | 44 | 1014.5 |
| 20260901204928 | 74 | 250 | 1.0 | 7.0 | 0.00 | 0.00 | 0.00 | 44 | 1014.4 |
| 20260901204203 | 73 | 194 | 1.0 | 6.0 | 0.00 | 0.00 | 0.00 | 47 | 1014.5 |
| 20260901203705 | 72 | 296 | 1.0 | 6.0 | 0.00 | 0.00 | 0.00 | 47 | 1014.5 |
| 20260901203204 | 72 | 278 | 1.0 | 6.0 | 0.00 | 0.00 | 0.00 | 45 | 1014.5 |
| 20260901202932 | 72 | 278 | 1.0 | 5.0 | 0.00 | 0.00 | 0.00 | 46 | 1014.7 |
| 20260901202203 | 72 | 283 | 1.0 | 5.0 | 0.00 | 0.00 | 0.00 | 46 | 1014.7 |
| 20260901201705 | 72 | 293 | 1.0 | 5.0 | 0.00 | 0.00 | 0.00 | 46 | 1014.7 |
| 20260901201427 | 72 | 271 | 2.0 | 9.0 | 0.00 | 0.00 | 0.00 | 46 | 1014.8 |
| 20260901200705 | 72 | 96 | 1.0 | 9.0 | 0.00 | 0.00 | 0.00 | 46 | 1014.9 |
| 20260901200203 | 72 | 250 | 1.0 | 5.0 | 0.00 | 0.00 | 0.00 | 47 | 1014.9 |
| 20260901195931 | 72 | 237 | 1.0 | 7.0 | 0.00 | 0.00 | 0.00 | 46 | 1015.0 |
| 20260901195203 | 72 | 277 | 1.0 | 7.0 | 0.00 | 0.00 | 0.00 | 47 | 1014.9 |
| 20260901194705 | 72 | 308 | 1.0 | 6.0 | 0.00 | 0.00 | 0.00 | 48 | 1014.9 |
| 20260901194204 | 72 | 262 | 1.0 | 6.0 | 0.00 | 0.00 | 0.00 | 48 | 1014.9 |
| 20260901193930 | 72 | 277 | 1.0 | 8.0 | 0.00 | 0.00 | 0.00 | 49 | 1015.0 |
| 20260901193203 | 71 | 253 | 1.0 | 8.0 | 0.00 | 0.00 | 0.00 | 49 | 1015.0 |
| 20260901192705 | 71 | 281 | 1.0 | 7.0 | 0.00 | 0.00 | 0.00 | 50 | 1015.1 |
| 20260901192203 | 71 | 248 | 2.0 | 7.0 | 0.00 | 0.00 | 0.00 | 51 | 1015.2 |
| 20260901191704 | 71 | 290 | 1.0 | 6.0 | 0.00 | 0.00 | 0.00 | 50 | 1015.2 |
| 20260901191420 | 71 | 229 | 1.0 | 7.0 | 0.00 | 0.00 | 0.00 | 51 | 1015.2 |
| 20260901190706 | 70 | 97 | 2.0 | 7.0 | 0.00 | 0.00 | 0.00 | 53 | 1015.2 |
| 20260901190203 | 70 | 124 | 1.0 | 6.0 | 0.00 | 0.00 | 0.00 | 53 | 1015.3 |
| 20260901185705 | 70 | 336 | 1.0 | 6.0 | 0.00 | 0.00 | 0.00 | 52 | 1015.3 |
| 20260901185427 | 70 | 254 | 1.0 | 6.0 | 0.00 | 0.00 | 0.00 | 53 | 1015.2 |
| 20260901184704 | 69 | 295 | 1.0 | 6.0 | 0.00 | 0.00 | 0.00 | 54 | 1015.2 |
| 20260901184203 | 69 | 280 | 1.0 | 6.0 | 0.00 | 0.00 | 0.00 | 56 | 1015.3 |
| 20260901183929 | 68 | 283 | 1.0 | 9.0 | 0.00 | 0.00 | 0.00 | 57 | 1015.3 |
| 20260901183204 | 68 | 254 | 2.0 | 9.0 | 0.00 | 0.00 | 0.00 | 55 | 1015.3 |
| 20260901182704 | 69 | 281 | 1.0 | 7.0 | 0.00 | 0.00 | 0.00 | 56 | 1015.2 |
| 20260901182204 | 69 | 276 | 0.0 | 4.0 | 0.00 | 0.00 | 0.00 | 57 | 1015.2 |
| 20260901181923 | 68 | 270 | 0.0 | 4.0 | 0.00 | 0.00 | 0.00 | 57 | 1015.2 |
| 20260901181203 | 69 | 271 | 0.0 | 5.0 | 0.00 | 0.00 | 0.00 | 56 | 1015.2 |
| 20260901180705 | 69 | 281 | 0.0 | 5.0 | 0.00 | 0.00 | 0.00 | 56 | 1015.2 |
| 20260901180202 | 70 | 285 | 1.0 | 5.0 | 0.00 | 0.00 | 0.00 | 55 | 1015.2 |
| 20260901175938 | 70 | 42 | 0.0 | 5.0 | 0.00 | 0.00 | 0.00 | 56 | 1015.1 |
| 20260901175204 | 69 | 280 | 0.0 | 8.0 | 0.00 | 0.00 | 0.00 | 57 | 1015.0 |
| 20260901174705 | 69 | 261 | 1.0 | 8.0 | 0.00 | 0.00 | 0.00 | 59 | 1014.9 |
| 20260901174431 | 68 | 184 | 1.0 | 6.0 | 0.00 | 0.00 | 0.00 | 59 | 1014.9 |
| 20260901173705 | 68 | 252 | 0.0 | 6.0 | 0.00 | 0.00 | 0.00 | 58 | 1014.9 |
| 20260901173203 | 68 | 245 | 1.0 | 9.0 | 0.00 | 0.00 | 0.00 | 60 | 1014.9 |
| 20260901172705 | 68 | 94 | 1.0 | 9.0 | 0.00 | 0.00 | 0.00 | 60 | 1014.9 |
| 20260901172203 | 68 | 263 | 1.0 | 8.0 | 0.00 | 0.00 | 0.00 | 60 | 1014.8 |
| 20260901171705 | 67 | 200 | 0.0 | 5.0 | 0.00 | 0.00 | 0.00 | 61 | 1014.8 |
| 20260901171203 | 67 | 284 | 0.0 | 3.0 | 0.00 | 0.00 | 0.00 | 61 | 1014.8 |
| 20260901170703 | 67 | 288 | 0.0 | 3.0 | 0.00 | 0.00 | 0.00 | 62 | 1014.7 |
| 20260901170204 | 66 | 283 | 0.0 | 3.0 | 0.00 | 0.00 | 0.00 | 64 | 1014.7 |
| 20260901165703 | 65 | 262 | 0.0 | 4.0 | 0.00 | 0.00 | 0.00 | 66 | 1014.6 |
| 20260901165203 | 65 | 306 | 0.0 | 4.0 | 0.00 | 0.00 | 0.00 | 66 | 1014.6 |
| 20260901164703 | 65 | 229 | 1.0 | 9.0 | 0.00 | 0.00 | 0.00 | 65 | 1014.6 |
| 20260901164203 | 64 | 255 | 1.0 | 9.0 | 0.00 | 0.00 | 0.00 | 68 | 1014.6 |
| 20260901163712 | 64 | 276 | 0.0 | 3.0 | 0.00 | 0.00 | 0.00 | 69 | 1014.6 |
| 20260901163147 | 64 | 180 | 1.0 | 5.0 | 0.00 | 0.00 | 0.00 | 69 | 1014.7 |
| 20260901162635 | 64 | 265 | 1.0 | 5.0 | 0.00 | 0.00 | 0.00 | 70 | 1014.8 |
| 20260901162131 | 64 | 262 | 0.0 | 4.0 | 0.00 | 0.00 | 0.00 | 73 | 1014.7 |
| 20260901161640 | 64 | 231 | 0.0 | 1.0 | 0.00 | 0.00 | 0.00 | 73 | 1014.6 |
| 20260901161134 | 64 | 251 | 0.0 | 6.0 | 0.00 | 0.00 | 0.00 | 74 | 1014.6 |
| 20260901160632 | 64 | 271 | 1.0 | 6.0 | 0.00 | 0.00 | 0.00 | 70 | 1014.5 |
| 20260901160131 | 64 | 285 | 0.0 | 6.0 | 0.00 | 0.00 | 0.00 | 72 | 1014.5 |
| 20260901155633 | 63 | 271 | 0.0 | 2.0 | 0.00 | 0.00 | 0.00 | 73 | 1014.4 |
| 20260901155131 | 63 | 276 | 1.0 | 7.0 | 0.00 | 0.00 | 0.00 | 73 | 1014.2 |
| 20260901154633 | 63 | 311 | 0.0 | 7.0 | 0.00 | 0.00 | 0.00 | 73 | 1014.2 |
| 20260901154129 | 63 | 240 | 0.0 | 2.0 | 0.00 | 0.00 | 0.00 | 73 | 1014.3 |
| 20260901153630 | 63 | 304 | 0.0 | 2.0 | 0.00 | 0.00 | 0.00 | 74 | 1014.1 |
| 20260901153129 | 63 | 276 | 0.0 | 3.0 | 0.00 | 0.00 | 0.00 | 75 | 1014.2 |
| 20260901152850 | 62 | 269 | 0.0 | 3.0 | 0.00 | 0.00 | 0.00 | 75 | 1014.2 |
| 20260901152128 | 62 | 288 | 0.0 | 3.0 | 0.00 | 0.00 | 0.00 | 76 | 1014.1 |
| 20260901151850 | 62 | 276 | 0.0 | 6.0 | 0.00 | 0.00 | 0.00 | 76 | 1014.1 |
| 20260901151129 | 62 | 292 | 0.0 | 6.0 | 0.00 | 0.00 | 0.00 | 76 | 1013.9 |
| 20260901150630 | 62 | 115 | 0.0 | 6.0 | 0.00 | 0.00 | 0.00 | 76 | 1013.9 |
| 20260901150348 | 62 | 245 | 0.0 | 4.0 | 0.00 | 0.00 | 0.00 | 77 | 1013.9 |
| 20260901145630 | 62 | 233 | 0.0 | 5.0 | 0.00 | 0.00 | 0.00 | 77 | 1013.9 |
| 20260901145129 | 62 | 210 | 0.0 | 5.0 | 0.00 | 0.00 | 0.00 | 77 | 1013.8 |
| 20260901144630 | 61 | 255 | 0.0 | 4.0 | 0.00 | 0.00 | 0.00 | 76 | 1013.8 |
| 20260901144129 | 61 | 270 | 1.0 | 7.0 | 0.00 | 0.00 | 0.00 | 76 | 1013.7 |
| 20260901143631 | 61 | 231 | 1.0 | 7.0 | 0.00 | 0.00 | 0.00 | 76 | 1013.6 |
| 20260901143130 | 61 | 285 | 0.0 | 0.0 | 0.00 | 0.00 | 0.00 | 77 | 1013.6 |
| 20260901142630 | 61 | 221 | 0.0 | 0.0 | 0.00 | 0.00 | 0.00 | 77 | 1013.6 |
| 20260901142129 | 60 | 231 | 0.0 | 0.0 | 0.00 | 0.00 | 0.00 | 77 | 1013.5 |
| 20260901141630 | 60 | 203 | 0.0 | 0.0 | 0.00 | 0.00 | 0.00 | 77 | 1013.4 |
| 20260901141129 | 60 | 284 | 0.0 | 0.0 | 0.00 | 0.00 | 0.00 | 77 | 1013.2 |
| 20260901140630 | 60 | 266 | 0.0 | 0.0 | 0.00 | 0.00 | 0.00 | 78 | 1013.2 |
| 20260901140129 | 60 | 250 | 0.0 | 0.0 | 0.00 | 0.00 | 0.00 | 78 | 1013.2 |
| 20260901135631 | 60 | 281 | 0.0 | 0.0 | 0.00 | 0.00 | 0.00 | 79 | 1013.2 |
| 20260901135129 | 60 | 304 | 0.0 | 0.0 | 0.00 | 0.00 | 0.00 | 80 | 1013.1 |
| 20260901134631 | 60 | 238 | 0.0 | 0.0 | 0.00 | 0.00 | 0.00 | 80 | 1013.1 |
| 20260901134353 | 60 | 283 | 0.0 | 0.0 | 0.00 | 0.00 | 0.00 | 80 | 1013.0 |
| 20260901133637 | 60 | 272 | 0.0 | 0.0 | 0.00 | 0.00 | 0.00 | 80 | 1012.9 |
| 20260901133129 | 60 | 277 | 0.0 | 0.0 | 0.00 | 0.00 | 0.00 | 80 | 1012.9 |
| 20260901132630 | 60 | 277 | 0.0 | 0.0 | 0.00 | 0.00 | 0.00 | 81 | 1012.8 |
| 20260901132129 | 60 | 277 | 0.0 | 0.0 | 0.00 | 0.00 | 0.00 | 81 | 1012.8 |
| 20260901131631 | 60 | 277 | 0.0 | 0.0 | 0.00 | 0.00 | 0.00 | 81 | 1012.7 |
| 20260901131129 | 60 | 295 | 0.0 | 0.0 | 0.00 | 0.00 | 0.00 | 81 | 1012.7 |
| 20260901130630 | 60 | 225 | 0.0 | 0.0 | 0.00 | 0.00 | 0.00 | 81 | 1012.8 |
| 20260901130128 | 60 | 271 | 0.0 | 0.0 | 0.00 | 0.00 | 0.00 | 81 | 1012.9 |
| 20260901125631 | 60 | 285 | 0.0 | 0.0 | 0.00 | 0.00 | 0.00 | 81 | 1012.8 |
| 20260901125128 | 60 | 279 | 0.0 | 0.0 | 0.00 | 0.00 | 0.00 | 81 | 1012.8 |
| 20260901124630 | 60 | 274 | 0.0 | 0.0 | 0.00 | 0.00 | 0.00 | 81 | 1012.7 |
| 20260901124129 | 60 | 286 | 0.0 | 0.0 | 0.00 | 0.00 | 0.00 | 81 | 1012.6 |
| 20260901123859 | 60 | 272 | 0.0 | 0.0 | 0.00 | 0.00 | 0.00 | 81 | 1012.6 |
| 20260901123129 | 60 | 7 | 0.0 | 0.0 | 0.00 | 0.00 | 0.00 | 81 | 1012.6 |
| 20260901122631 | 59 | 285 | 0.0 | 0.0 | 0.00 | 0.00 | 0.00 | 81 | 1012.6 |
| 20260901122128 | 59 | 285 | 0.0 | 0.0 | 0.00 | 0.00 | 0.00 | 81 | 1012.4 |
| 20260901121854 | 59 | 285 | 0.0 | 0.0 | 0.00 | 0.00 | 0.00 | 80 | 1012.5 |
| 20260901121128 | 59 | 291 | 0.0 | 1.0 | 0.00 | 0.00 | 0.00 | 80 | 1012.4 |
| 20260901120630 | 60 | 291 | 0.0 | 5.0 | 0.00 | 0.00 | 0.00 | 80 | 1012.3 |
| 20260901120130 | 60 | 305 | 0.0 | 5.0 | 0.00 | 0.00 | 0.00 | 79 | 1012.3 |
| 20260901115631 | 60 | 281 | 0.0 | 5.0 | 0.00 | 0.00 | 0.00 | 79 | 1012.4 |
| 20260901115130 | 60 | 296 | 0.0 | 5.0 | 0.00 | 0.00 | 0.00 | 79 | 1012.5 |
| 20260901114630 | 60 | 160 | 0.0 | 2.0 | 0.00 | 0.00 | 0.00 | 79 | 1012.5 |
| 20260901114128 | 60 | 276 | 0.0 | 6.0 | 0.00 | 0.00 | 0.00 | 78 | 1012.5 |
| 20260901113630 | 60 | 281 | 0.0 | 6.0 | 0.00 | 0.00 | 0.00 | 78 | 1012.5 |
| 20260901113128 | 60 | 274 | 0.0 | 2.0 | 0.00 | 0.00 | 0.00 | 77 | 1012.6 |
| 20260901112630 | 60 | 125 | 0.0 | 6.0 | 0.00 | 0.00 | 0.00 | 77 | 1012.5 |
| 20260901112129 | 60 | 256 | 0.0 | 6.0 | 0.00 | 0.00 | 0.00 | 77 | 1012.6 |
| 20260901111630 | 60 | 265 | 0.0 | 5.0 | 0.00 | 0.00 | 0.00 | 76 | 1012.6 |
| 20260901111129 | 60 | 268 | 0.0 | 4.0 | 0.00 | 0.00 | 0.00 | 76 | 1012.7 |
| 20260901110630 | 60 | 248 | 0.0 | 4.0 | 0.00 | 0.00 | 0.00 | 76 | 1012.6 |
| 20260901110400 | 60 | 261 | 0.0 | 3.0 | 0.00 | 0.00 | 0.00 | 76 | 1012.6 |
| 20260901105850 | 60 | 326 | 0.0 | 3.0 | 0.00 | 0.00 | 0.00 | 76 | 1012.6 |
| 20260901105347 | 60 | 214 | 0.0 | 2.0 | 0.00 | 0.00 | 0.00 | 76 | 1012.5 |
| 20260901104629 | 60 | 271 | 0.0 | 2.0 | 0.00 | 0.00 | 0.00 | 76 | 1012.5 |
| 20260901104129 | 60 | 297 | 0.0 | 1.0 | 0.00 | 0.00 | 0.00 | 76 | 1012.4 |
| 20260901103631 | 60 | 207 | 0.0 | 7.0 | 0.00 | 0.00 | 0.00 | 77 | 1012.3 |
| 20260901103129 | 60 | 285 | 0.0 | 8.0 | 0.00 | 0.00 | 0.00 | 77 | 1012.3 |
| 20260901102630 | 60 | 259 | 0.0 | 8.0 | 0.00 | 0.00 | 0.00 | 77 | 1012.3 |
| 20260901102129 | 59 | 161 | 0.0 | 1.0 | 0.00 | 0.00 | 0.00 | 77 | 1012.3 |
| 20260901101633 | 59 | 259 | 0.0 | 4.0 | 0.00 | 0.00 | 0.00 | 77 | 1012.2 |
| 20260901101128 | 60 | 275 | 0.0 | 4.0 | 0.00 | 0.00 | 0.00 | 77 | 1012.2 |
| 20260901100629 | 60 | 254 | 0.0 | 1.0 | 0.00 | 0.00 | 0.00 | 77 | 1012.1 |
| 20260901100129 | 60 | 271 | 0.0 | 1.0 | 0.00 | 0.00 | 0.00 | 77 | 1012.1 |
| 20260901095629 | 60 | 193 | 0.0 | 4.0 | 0.00 | 0.00 | 0.00 | 76 | 1012.1 |
| 20260901095129 | 60 | 248 | 0.0 | 4.0 | 0.00 | 0.00 | 0.00 | 76 | 1012.1 |
| 20260901094619 | 60 | 255 | 0.0 | 3.0 | 0.00 | 0.00 | 0.00 | 76 | 1012.2 |
| 20260901094119 | 60 | 285 | 0.0 | 5.0 | 0.00 | 0.00 | 0.00 | 75 | 1012.3 |
| 20260901093606 | 60 | 278 | 0.0 | 5.0 | 0.00 | 0.00 | 0.00 | 75 | 1012.4 |
| 20260901093105 | 60 | 262 | 0.0 | 3.0 | 0.00 | 0.00 | 0.00 | 74 | 1012.4 |
| 20260901092603 | 60 | 263 | 0.0 | 4.0 | 0.00 | 0.00 | 0.00 | 74 | 1012.4 |
| 20260901092323 | 60 | 251 | 0.0 | 4.0 | 0.00 | 0.00 | 0.00 | 74 | 1012.4 |
| 20260901091602 | 60 | 234 | 0.0 | 4.0 | 0.00 | 0.00 | 0.00 | 74 | 1012.4 |
| 20260901091325 | 60 | 290 | 0.0 | 4.0 | 0.00 | 0.00 | 0.00 | 73 | 1012.4 |
| 20260901090603 | 60 | 287 | 0.0 | 1.0 | 0.00 | 0.00 | 0.00 | 73 | 1012.4 |
| 20260901090100 | 60 | 238 | 0.0 | 1.0 | 0.00 | 0.00 | 0.00 | 73 | 1012.4 |
| 20260901085604 | 60 | 224 | 0.0 | 0.0 | 0.00 | 0.00 | 0.00 | 73 | 1012.3 |
| 20260901085100 | 60 | 267 | 0.0 | 3.0 | 0.00 | 0.00 | 0.00 | 73 | 1012.3 |
| 20260901084603 | 60 | 287 | 0.0 | 3.0 | 0.00 | 0.00 | 0.00 | 73 | 1012.5 |
| 20260901084550 | 60 | 276 | 0.0 | 3.0 | 0.00 | 0.00 | 0.00 | 73 | 1012.4 |
| 20260901083603 | 60 | 260 | 0.0 | 6.0 | 0.00 | 0.00 | 0.00 | 73 | 1012.5 |
| 20260901083108 | 60 | 274 | 0.0 | 6.0 | 0.00 | 0.00 | 0.00 | 73 | 1012.5 |
| 20260901082603 | 60 | 284 | 0.0 | 4.0 | 0.00 | 0.00 | 0.00 | 73 | 1012.5 |
| 20260901082101 | 60 | 281 | 0.0 | 3.0 | 0.00 | 0.00 | 0.00 | 73 | 1012.5 |
| 20260901081602 | 60 | 281 | 0.0 | 3.0 | 0.00 | 0.00 | 0.00 | 73 | 1012.4 |
| 20260901081100 | 60 | 306 | 0.0 | 1.0 | 0.00 | 0.00 | 0.00 | 73 | 1012.4 |
| 20260901080603 | 60 | 285 | 0.0 | 0.0 | 0.00 | 0.00 | 0.00 | 74 | 1012.4 |
| 20260901080101 | 60 | 281 | 0.0 | 0.0 | 0.00 | 0.00 | 0.00 | 74 | 1012.4 |
| 20260901075602 | 60 | 256 | 0.0 | 4.0 | 0.00 | 0.00 | 0.00 | 74 | 1012.4 |
| 20260901075101 | 60 | 256 | 0.0 | 4.0 | 0.00 | 0.00 | 0.00 | 73 | 1012.3 |
| 20260901074602 | 60 | 217 | 0.0 | 1.0 | 0.00 | 0.00 | 0.00 | 73 | 1012.3 |
| 20260901074101 | 60 | 295 | 0.0 | 2.0 | 0.00 | 0.00 | 0.00 | 73 | 1012.3 |
| 20260901073827 | 60 | 249 | 0.0 | 2.0 | 0.00 | 0.00 | 0.00 | 73 | 1012.3 |
| 20260901073101 | 60 | 240 | 0.0 | 2.0 | 0.00 | 0.00 | 0.00 | 73 | 1012.3 |
| 20260901072603 | 60 | 286 | 0.0 | 5.0 | 0.00 | 0.00 | 0.00 | 73 | 1012.3 |
| 20260901072101 | 60 | 252 | 0.0 | 5.0 | 0.00 | 0.00 | 0.00 | 73 | 1012.3 |
| 20260901071603 | 60 | 249 | 0.0 | 5.0 | 0.00 | 0.00 | 0.00 | 73 | 1012.3 |
| 20260901071101 | 60 | 227 | 0.0 | 5.0 | 0.00 | 0.00 | 0.00 | 73 | 1012.3 |
| 20260901070602 | 60 | 259 | 0.0 | 2.0 | 0.00 | 0.00 | 0.00 | 74 | 1012.3 |
| 20260901070316 | 60 | 231 | 0.0 | 2.0 | 0.00 | 0.00 | 0.00 | 74 | 1012.3 |
| 20260901065602 | 60 | 258 | 0.0 | 6.0 | 0.00 | 0.00 | 0.00 | 74 | 1012.2 |
| 20260901065101 | 60 | 292 | 0.0 | 6.0 | 0.00 | 0.00 | 0.00 | 75 | 1012.3 |
| 20260901064603 | 60 | 287 | 1.0 | 6.0 | 0.00 | 0.00 | 0.00 | 75 | 1012.4 |
| 20260901064326 | 60 | 266 | 1.0 | 6.0 | 0.00 | 0.00 | 0.00 | 75 | 1012.4 |
| 20260901063603 | 60 | 196 | 1.0 | 4.0 | 0.00 | 0.00 | 0.00 | 75 | 1012.4 |
| 20260901063101 | 60 | 273 | 0.0 | 3.0 | 0.00 | 0.00 | 0.00 | 75 | 1012.4 |
| 20260901062602 | 60 | 256 | 0.0 | 4.0 | 0.00 | 0.00 | 0.00 | 75 | 1012.4 |
| 20260901062100 | 60 | 288 | 0.0 | 4.0 | 0.00 | 0.00 | 0.00 | 75 | 1012.4 |
| 20260901061602 | 60 | 298 | 0.0 | 4.0 | 0.00 | 0.00 | 0.00 | 75 | 1012.5 |
| 20260901061100 | 60 | 219 | 0.0 | 4.0 | 0.00 | 0.00 | 0.00 | 75 | 1012.5 |
| 20260901060826 | 60 | 236 | 0.0 | 4.0 | 0.00 | 0.00 | 0.00 | 75 | 1012.5 |
| 20260901055604 | 60 | 325 | 1.0 | 8.0 | 0.00 | 0.00 | 0.00 | 75 | 1012.5 |
| 20260901055101 | 60 | 266 | 0.0 | 6.0 | 0.00 | 0.00 | 0.00 | 75 | 1012.6 |
| 20260901054552 | 59 | 260 | 0.0 | 6.0 | 0.00 | 0.00 | 0.00 | 76 | 1012.5 |
| 20260901054048 | 59 | 252 | 1.0 | 6.0 | 0.00 | 0.00 | 0.00 | 76 | 1012.4 |
| 20260901053531 | 59 | 282 | 1.0 | 6.0 | 0.00 | 0.00 | 0.00 | 75 | 1012.4 |
| 20260901053030 | 59 | 210 | 0.0 | 6.0 | 0.00 | 0.00 | 0.00 | 76 | 1012.3 |
| 20260901052529 | 59 | 271 | 0.0 | 4.0 | 0.00 | 0.00 | 0.00 | 76 | 1012.3 |
| 20260901052255 | 59 | 295 | 0.0 | 6.0 | 0.00 | 0.00 | 0.00 | 75 | 1012.4 |
| 20260901051536 | 59 | 266 | 0.0 | 6.0 | 0.00 | 0.00 | 0.00 | 75 | 1012.3 |
| 20260901051029 | 59 | 254 | 0.0 | 5.0 | 0.00 | 0.00 | 0.00 | 75 | 1012.3 |
| 20260901050529 | 59 | 274 | 0.0 | 3.0 | 0.00 | 0.00 | 0.00 | 75 | 1012.3 |
| 20260901050028 | 59 | 299 | 1.0 | 7.0 | 0.00 | 0.00 | 0.00 | 75 | 1012.3 |
| 20260901045516 | 59 | 224 | 1.0 | 7.0 | 0.00 | 0.00 | 0.00 | 74 | 1012.2 |
| 20260901045001 | 59 | 296 | 1.0 | 6.0 | 0.00 | 0.00 | 0.00 | 74 | 1012.3 |
| 20260901044501 | 59 | 287 | 1.0 | 7.0 | 0.00 | 0.00 | 0.00 | 74 | 1012.3 |
| 20260901044001 | 59 | 238 | 1.0 | 7.0 | 0.00 | 0.00 | 0.00 | 74 | 1012.3 |
| 20260901043501 | 59 | 289 | 1.0 | 6.0 | 0.00 | 0.00 | 0.00 | 74 | 1012.2 |
| 20260901043225 | 59 | 283 | 1.0 | 9.0 | 0.00 | 0.00 | 0.00 | 74 | 1012.3 |
| 20260901042500 | 60 | 262 | 1.0 | 9.0 | 0.00 | 0.00 | 0.00 | 74 | 1012.3 |
| 20260901042224 | 60 | 279 | 1.0 | 9.0 | 0.00 | 0.00 | 0.00 | 74 | 1012.2 |
| 20260901041500 | 60 | 260 | 1.0 | 9.0 | 0.00 | 0.00 | 0.00 | 74 | 1012.2 |
| 20260901041001 | 60 | 276 | 1.0 | 5.0 | 0.00 | 0.00 | 0.00 | 74 | 1012.1 |
| 20260901040501 | 60 | 268 | 1.0 | 3.0 | 0.00 | 0.00 | 0.00 | 74 | 1012.1 |
| 20260901040001 | 60 | 315 | 1.0 | 6.0 | 0.00 | 0.00 | 0.00 | 74 | 1012.0 |
| 20260901035501 | 60 | 297 | 1.0 | 6.0 | 0.00 | 0.00 | 0.00 | 74 | 1012.0 |
| 20260901035000 | 60 | 242 | 1.0 | 5.0 | 0.00 | 0.00 | 0.00 | 74 | 1011.9 |
| 20260901034501 | 60 | 258 | 1.0 | 8.0 | 0.00 | 0.00 | 0.00 | 74 | 1011.9 |
| 20260901034001 | 60 | 227 | 1.0 | 8.0 | 0.00 | 0.00 | 0.00 | 74 | 1011.8 |
| 20260901033500 | 60 | 241 | 2.0 | 8.0 | 0.00 | 0.00 | 0.00 | 74 | 1011.7 |
| 20260901033001 | 60 | 238 | 1.0 | 8.0 | 0.00 | 0.00 | 0.00 | 74 | 1011.7 |
| 20260901032502 | 60 | 249 | 2.0 | 9.0 | 0.00 | 0.00 | 0.00 | 74 | 1011.6 |
| 20260901032001 | 60 | 239 | 2.0 | 9.0 | 0.00 | 0.00 | 0.00 | 74 | 1011.6 |
| 20260901031501 | 60 | 253 | 2.0 | 11.0 | 0.00 | 0.00 | 0.00 | 74 | 1011.5 |
| 20260901031223 | 60 | 244 | 2.0 | 11.0 | 0.00 | 0.00 | 0.00 | 74 | 1011.5 |
| 20260901030500 | 60 | 241 | 2.0 | 9.0 | 0.00 | 0.00 | 0.00 | 74 | 1011.4 |
| 20260901030001 | 60 | 290 | 1.0 | 9.0 | 0.00 | 0.00 | 0.00 | 73 | 1011.4 |
| 20260901025500 | 60 | 232 | 1.0 | 4.0 | 0.00 | 0.00 | 0.00 | 73 | 1011.4 |
| 20260901025002 | 61 | 183 | 1.0 | 4.0 | 0.00 | 0.00 | 0.00 | 73 | 1011.5 |
| 20260901024501 | 61 | 281 | 1.0 | 9.0 | 0.00 | 0.00 | 0.00 | 73 | 1011.5 |
| 20260901024001 | 61 | 245 | 1.0 | 9.0 | 0.00 | 0.00 | 0.00 | 72 | 1011.5 |
| 20260901023501 | 61 | 258 | 2.0 | 9.0 | 0.00 | 0.00 | 0.00 | 72 | 1011.4 |
| 20260901023000 | 61 | 288 | 1.0 | 9.0 | 0.00 | 0.00 | 0.00 | 72 | 1011.4 |
| 20260901022724 | 61 | 238 | 1.0 | 7.0 | 0.00 | 0.00 | 0.00 | 71 | 1011.3 |
| 20260901022232 | 62 | 353 | 2.0 | 14.0 | 0.00 | 0.00 | 0.00 | 71 | 1011.4 |
| 20260901021501 | 62 | 271 | 2.0 | 14.0 | 0.00 | 0.00 | 0.00 | 70 | 1011.4 |
| 20260901021001 | 62 | 271 | 2.0 | 9.0 | 0.00 | 0.00 | 0.00 | 70 | 1011.4 |
| 20260901020501 | 62 | 266 | 2.0 | 11.0 | 0.00 | 0.00 | 0.00 | 70 | 1011.2 |
| 20260901020001 | 63 | 293 | 2.0 | 11.0 | 0.00 | 0.00 | 0.00 | 69 | 1011.3 |
| 20260901015501 | 63 | 271 | 2.0 | 10.0 | 0.00 | 0.00 | 0.00 | 68 | 1011.4 |
| 20260901015001 | 63 | 240 | 2.0 | 10.0 | 0.00 | 0.00 | 0.00 | 68 | 1011.4 |
| 20260901014500 | 64 | 278 | 1.0 | 10.0 | 0.00 | 0.00 | 0.00 | 67 | 1011.4 |
| 20260901013935 | 65 | 236 | 1.0 | 10.0 | 0.00 | 0.00 | 0.00 | 65 | 1011.4 |
| 20260901013430 | 65 | 217 | 1.0 | 8.0 | 0.00 | 0.00 | 0.00 | 64 | 1011.4 |
| 20260901012930 | 67 | 249 | 1.0 | 5.0 | 0.00 | 0.00 | 0.00 | 62 | 1011.4 |
| 20260901012429 | 67 | 209 | 1.0 | 5.0 | 0.00 | 0.00 | 0.00 | 63 | 1011.4 |
| 20260901011929 | 67 | 259 | 1.0 | 7.0 | 0.00 | 0.00 | 0.00 | 63 | 1011.4 |
| 20260901011429 | 67 | 306 | 1.0 | 7.0 | 0.00 | 0.00 | 0.00 | 63 | 1011.4 |
| 20260901011151 | 67 | 283 | 2.0 | 12.0 | 0.00 | 0.00 | 0.00 | 62 | 1011.4 |
| 20260901010429 | 67 | 217 | 2.0 | 12.0 | 0.00 | 0.00 | 0.00 | 63 | 1011.3 |
| 20260901005929 | 67 | 270 | 1.0 | 6.0 | 0.00 | 0.00 | 0.00 | 62 | 1011.4 |
| 20260901005404 | 67 | 229 | 2.0 | 10.0 | 0.00 | 0.00 | 0.00 | 62 | 1011.4 |
| 20260901004904 | 67 | 294 | 2.0 | 10.0 | 0.00 | 0.00 | 0.00 | 62 | 1011.4 |
| 20260901004404 | 68 | 306 | 3.0 | 10.0 | 0.00 | 0.00 | 0.00 | 61 | 1011.4 |
| 20260901003903 | 68 | 221 | 3.0 | 12.0 | 0.00 | 0.00 | 0.00 | 61 | 1011.4 |
| 20260901003403 | 68 | 205 | 2.0 | 12.0 | 0.00 | 0.00 | 0.00 | 61 | 1011.3 |
| 20260901002903 | 69 | 283 | 1.0 | 8.0 | 0.00 | 0.00 | 0.00 | 60 | 1011.2 |
| 20260901002405 | 69 | 262 | 2.0 | 8.0 | 0.00 | 0.00 | 0.00 | 60 | 1011.3 |
| 20260901001903 | 68 | 248 | 2.0 | 9.0 | 0.00 | 0.00 | 0.00 | 61 | 1011.3 |
| 20260901001403 | 69 | 240 | 1.0 | 9.0 | 0.00 | 0.00 | 0.00 | 60 | 1011.3 |
| 20260901000903 | 70 | 293 | 1.0 | 10.0 | 0.00 | 0.00 | 0.00 | 59 | 1011.4 |
| 20260901000405 | 70 | 249 | 1.0 | 10.0 | 0.00 | 0.00 | 0.00 | 59 | 1011.5 |
| 20260901000126 | 70 | 227 | 1.0 | 11.0 | 0.00 | 0.00 | 0.00 | 59 | 1011.4 |
| 20260831235404 | 70 | 243 | 1.0 | 11.0 | 0.00 | 0.00 | 0.00 | 59 | 1011.5 |
| 20260831234903 | 70 | 220 | 1.0 | 5.0 | 0.00 | 0.00 | 0.00 | 58 | 1011.5 |
| 20260831234629 | 70 | 234 | 1.0 | 10.0 | 0.00 | 0.00 | 0.00 | 59 | 1011.4 |
| 20260831233903 | 70 | 264 | 2.0 | 10.0 | 0.00 | 0.00 | 0.00 | 59 | 1011.4 |
| 20260831233403 | 70 | 281 | 1.0 | 7.0 | 0.00 | 0.00 | 0.00 | 59 | 1011.4 |
| 20260831232910 | 70 | 259 | 1.0 | 9.0 | 0.00 | 0.00 | 0.00 | 60 | 1011.3 |
| 20260831232632 | 70 | 304 | 1.0 | 9.0 | 0.00 | 0.00 | 0.00 | 59 | 1011.5 |
| 20260831231903 | 71 | 231 | 1.0 | 10.0 | 0.00 | 0.00 | 0.00 | 59 | 1011.5 |